Other Public Products
Issued by NWS Charleston, SC

Current Version | Previous Version | Graphics & Text | Print | Product List | Glossary On
Versions: 1 2 3 4 5 6 7 8 9 10 11 12 13 14 15 16 17 18 19 20 21 22 23 24 25 26 27 28 29 30 31 32 33 34 35 36 37 38 39 40 41 42 43 44 45 46 47 48 49 50
740 FPUS82 KCHS 161712 OPUCHS TEST...KCHS/KSAV Gateway Observations...TEST National Weather Service Charleston SC 1200 PM EST TUE JAN 16 2018 NOTE: "fair" indicates few or no clouds below 12,000 feet with no significant weather and/or obstructions to visibility. SCZ050-WAZ558-NCZ071-TXZ119-213-PAZ071-DCZ001-FLZ074-172-MI076- NYZ176-178-MAZ016-IL014-TNZ027-NJZ106-GAZ044-MD014-161800- ...Gateway Observations for Charleston International... CITY SKY/WX TMP DP RH WIND PRES REMARKS Chas Airport FAIR 52 23 32 E3 30.44F Seattle CLOUDY 49 43 80 S10 30.15R Charlotte PTSUNNY 43 19 38 SW7 30.43F Dallas DFW MOSUNNY 23 4 44 N15 30.81F WCI 10 Dallas Love MOSUNNY 22 2 42 N16G23 30.85S WCI 8 Philladelphia PTSUNNY 38 27 64 CALM 30.45F Wash National CLOUDY 35 26 69 SE3 30.46F Baltimore CLOUDY 34 28 79 CALM 30.44F Miami FAIR 75 54 47 NE12G18 30.28F Detroit FLURRIES 11 5 77 SW10 30.41S WCI -3 Newark CLOUDY 34 28 79 CALM 30.47F Laguardia CLOUDY 32 24 72 NE8 30.47F WCI 25 J F K CLOUDY 34 29 82 E3 30.48F Boston Logan PTSUNNY 30 21 69 S3 30.49F Ft. Lauderdale FAIR 71 56 58 NE15 30.27F Chicago O`Hare FLURRIES 21 14 74 NW15 30.45R WCI 8 Chicago Midway FLURRIES 21 15 78 NW10 30.46R WCI 10 Houston Bush FRZ RAIN 28 25 88 N20G28 30.66S WCI 15 Houston Hobby FRZ RAIN 29 28 96 N22G33 30.64R FOG WCI 15 Nashville LGT SNOW 14 7 73 NW8 30.61S VSB 3/4 WCI 3 Atlanta PTSUNNY 45 28 51 VRB5 30.40F $$ GAZ044-118-TXZ119-213-NCZ071-DCZ001-MDZ014-506-PAZ021-071-NJZ106- NYZ176-178-MAZ106-OHZ011-021-055-MIZ076-KYZ091-ILZ014-INZ047- MNZ060-ONZ431-161800- ...Gateway Observations for Savannah International... CITY SKY/WX TMP DP RH WIND PRES REMARKS Savannah Arpt PTSUNNY 52 26 36 CALM 30.45F Atlanta PTSUNNY 45 28 51 VRB5 30.40F Charlotte PTSUNNY 43 19 38 SW7 30.43F Dallas DFW MOSUNNY 23 4 44 N15 30.81F WCI 10 Houston Bush FRZ RAIN 28 25 88 N20G28 30.66S WCI 15 Wash National CLOUDY 35 26 69 SE3 30.46F Wash Dulles PTSUNNY 34 26 72 SW8 30.44F WCI 27 Baltimore CLOUDY 34 28 79 CALM 30.44F Philadelphia PTSUNNY 38 27 64 CALM 30.45F Newark CLOUDY 34 28 79 CALM 30.47F Laguardia CLOUDY 32 24 72 NE8 30.47F WCI 25 J F K CLOUDY 34 29 82 E3 30.48F Boston PTSUNNY 30 21 69 S3 30.49F Pittsburg LGT SNOW 26 22 84 W12 30.34F FOG WCI 16 Akron PTSUNNY 8 0 69 SW14 30.39S WCI -8 Cleveland PTSUNNY 11 2 67 SW8 30.44F WCI -1 Cincinnati FAIR 7 -1 70 W13 30.51S WCI -9 Columbus FAIR 7 0 71 W9 30.49F WCI -6 Detroit FLURRIES 11 5 77 SW10 30.41S WCI -3 Chicago O`Hare FLURRIES 21 14 74 NW15 30.45R WCI 8 Minneapolis FAIR 2 -4 76 NW7 30.69F WCI -11 Indianapolis PTSUNNY 1 -6 72 SW13 30.53F WCI -17 Toronto Canada PTSUNNY 23 16 74 W12 30.35F WCI 12 $$

USA.gov is the U.S. government's official web portal to all federal, state and local government web resources and services.